Weather History for K20U - February, 2013

Change the Weather History Date:

Tuesday, February 26, 2013

  Actual Average (KDIK) Record (KDIK)
Temperature  
Mean Temperature 30 °F 23 °F  
Max Temperature 37 °F 34 °F 58 °F (1983)
Min Temperature 24 °F 13 °F -24 °F (2011)
Degree Days  
Heating Degree Days 34 42  
Month to date heating degree days 1165  
Since 1 July heating degree days 6212  
Cooling Degree Days 0 0  
Month to date cooling degree days 0  
Year to date cooling degree days 0  
Moisture  
Dew Point 25 °F    
Average Humidity 81    
Maximum Humidity 93    
Minimum Humidity 65    
Precipitation  
Precipitation 0.00 in 0.02 in 0.96 in (1958)
Month to date precipitation 0.30  
Year to date precipitation 0.60  
Sea Level Pressure  
Sea Level Pressure 29.96 in    
Wind  
Wind Speed 8 mph (WNW)    
Max Wind Speed 21 mph    
Max Gust Speed 26 mph    
Visibility 10 miles    
Events      
T = Trace of Precipitation, MM = Missing Value Source: NWS Daily Summary

Daily Weather History Graph

Daily Weather History Graph

Search for Another Location

Airport or City:

Trip Planner

Search our weather history database for the weather conditions in past years. The results will help you decide how hot, cold, wet, or windy it might be!

Date:

Astronomy

Feb. 26, 2013 Rise Set
Actual Time 6:40 AM MST 5:37 PM MST
Civil Twilight 6:10 AM MST 6:08 PM MST
Nautical Twilight 5:34 AM MST 6:43 PM MST
Astronomical Twilight 4:59 AM MST 7:18 PM MST
Moon 7:05 PM MST 6:38 AM MST
Length of Visible Light 11h 58m
Length of Day
10h 56m
Full, 99% of the Moon is Illuminated
Feb 26
Full
Mar 4
Last Quarter
Mar 11
New
Mar 19
First Quarter
Mar 27
Full

Hourly Weather History & Observations

Time (MST) Temp. Windchill Dew Point Humidity Pressure Visibility Wind Dir Wind Speed Gust Speed Precip Events Conditions
12:15 AM 26.6 °F - 23.0 °F 86% 29.78 in 10.0 mi Calm Calm - N/A   Clear
12:35 AM 26.6 °F 21.2 °F 23.0 °F 86% 29.78 in 10.0 mi ESE 4.6 mph - N/A   Scattered Clouds
12:55 AM 28.4 °F - 23.0 °F 80% 29.78 in 10.0 mi Calm Calm - N/A   Overcast
1:15 AM 26.6 °F - 23.0 °F 86% 29.78 in 10.0 mi Calm Calm - N/A   Mostly Cloudy
1:35 AM 24.8 °F 20.5 °F 23.0 °F 93% 29.79 in 10.0 mi ESE 3.5 mph - N/A   Overcast
1:55 AM 26.6 °F 21.2 °F 23.0 °F 86% 29.79 in 10.0 mi South 4.6 mph - N/A   Mostly Cloudy
2:15 AM 24.8 °F 20.5 °F 23.0 °F 93% 29.79 in 10.0 mi South 3.5 mph - N/A   Clear
2:35 AM 24.8 °F - 21.2 °F 86% 29.80 in 10.0 mi Calm Calm - N/A   Clear
2:55 AM 24.8 °F 20.5 °F 23.0 °F 93% 29.80 in 10.0 mi SW 3.5 mph - N/A   Clear
3:15 AM 24.8 °F 19.1 °F 23.0 °F 93% 29.80 in 10.0 mi WSW 4.6 mph - N/A   Clear
3:35 AM 28.4 °F 23.3 °F 23.0 °F 80% 29.80 in 10.0 mi West 4.6 mph - N/A   Mostly Cloudy
3:55 AM 28.4 °F 22.2 °F 23.0 °F 80% 29.81 in 10.0 mi NW 5.8 mph - N/A   Overcast
4:15 AM 28.4 °F 24.6 °F 23.0 °F 80% 29.82 in 10.0 mi NW 3.5 mph - N/A   Overcast
4:35 AM 26.6 °F - 23.0 °F 86% 29.82 in 10.0 mi Calm Calm - N/A   Overcast
4:55 AM 24.8 °F - 23.0 °F 93% 29.83 in 10.0 mi Calm Calm - N/A   Overcast
5:15 AM 24.8 °F - 23.0 °F 93% 29.84 in 10.0 mi Calm Calm - N/A   Overcast
5:35 AM 24.8 °F 17.9 °F 23.0 °F 93% 29.84 in 10.0 mi West 5.8 mph - N/A   Overcast
5:55 AM 26.6 °F 20.0 °F 23.0 °F 86% 29.85 in 10.0 mi West 5.8 mph - N/A   Overcast
6:15 AM 26.6 °F 20.0 °F 23.0 °F 86% 29.86 in 10.0 mi West 5.8 mph - N/A   Overcast
6:35 AM 26.6 °F 20.0 °F 23.0 °F 86% 29.87 in 10.0 mi West 5.8 mph - N/A   Overcast
6:55 AM 26.6 °F 20.0 °F 23.0 °F 86% 29.87 in 10.0 mi West 5.8 mph - N/A   Overcast
7:15 AM 28.4 °F 24.6 °F 24.8 °F 86% 29.88 in 10.0 mi SW 3.5 mph - N/A   Mostly Cloudy
7:35 AM 28.4 °F 21.2 °F 26.6 °F 93% 29.89 in 10.0 mi WSW 6.9 mph - N/A   Overcast
7:55 AM 32.0 °F 27.5 °F 26.6 °F 80% 29.90 in 10.0 mi West 4.6 mph - N/A   Overcast
8:15 AM 32.0 °F 26.4 °F 26.6 °F 80% 29.90 in 10.0 mi WNW 5.8 mph - N/A   Overcast
8:35 AM 33.8 °F 25.3 °F 26.6 °F 75% 29.91 in 10.0 mi WNW 11.5 mph - N/A   Overcast
8:55 AM 33.8 °F 25.8 °F 26.6 °F 75% 29.91 in 10.0 mi NW 10.4 mph - N/A   Overcast
9:15 AM 35.6 °F 27.1 °F 26.6 °F 70% 29.92 in 10.0 mi WNW 12.7 mph - N/A   Overcast
9:35 AM 37.4 °F 28.5 °F 26.6 °F 65% 29.92 in 10.0 mi WNW 15.0 mph - N/A   Overcast
9:55 AM 37.4 °F 28.5 °F 26.6 °F 65% 29.92 in 10.0 mi WNW 15.0 mph 20.7 mph N/A   Mostly Cloudy
10:15 AM 37.4 °F 27.2 °F 28.4 °F 70% 29.91 in 10.0 mi NW 19.6 mph 23.0 mph N/A   Scattered Clouds
10:35 AM 37.4 °F 27.5 °F 28.4 °F 70% 29.92 in 10.0 mi NW 18.4 mph 25.3 mph N/A   Partly Cloudy
10:55 AM 37.4 °F 27.8 °F 28.4 °F 70% 29.93 in 10.0 mi NW 17.3 mph 23.0 mph N/A   Clear
11:15 AM 37.4 °F 28.2 °F 28.4 °F 70% 29.94 in 10.0 mi NW 16.1 mph 20.7 mph N/A   Clear
11:35 AM 37.4 °F 28.5 °F 28.4 °F 70% 29.95 in 10.0 mi NW 15.0 mph 21.9 mph N/A   Clear
11:55 AM 37.4 °F 28.5 °F 28.4 °F 70% 29.95 in 10.0 mi NW 15.0 mph 21.9 mph N/A   Partly Cloudy
12:15 PM 37.4 °F 28.2 °F 28.4 °F 70% 29.95 in 10.0 mi NW 16.1 mph 23.0 mph N/A   Scattered Clouds
12:35 PM 33.8 °F 23.5 °F 28.4 °F 81% 29.97 in 10.0 mi NW 16.1 mph 21.9 mph N/A   Mostly Cloudy
12:55 PM 32.0 °F 20.5 °F 28.4 °F 87% 29.98 in 10.0 mi WNW 18.4 mph - N/A   Overcast
1:15 PM 32.0 °F 20.5 °F 26.6 °F 80% 29.99 in 10.0 mi NW 18.4 mph - N/A   Overcast
1:35 PM 32.0 °F 20.8 °F 26.6 °F 80% 29.98 in 10.0 mi NW 17.3 mph - N/A   Overcast
1:55 PM 32.0 °F 19.8 °F 26.6 °F 80% 29.99 in 10.0 mi WNW 20.7 mph 24.2 mph N/A   Overcast
2:15 PM 32.0 °F 21.2 °F 26.6 °F 80% 29.99 in 10.0 mi NW 16.1 mph 21.9 mph N/A   Overcast
2:35 PM 32.0 °F 20.1 °F 26.6 °F 80% 30.00 in 10.0 mi NW 19.6 mph 23.0 mph N/A   Overcast
2:55 PM 32.0 °F 20.1 °F 24.8 °F 75% 30.01 in 10.0 mi NW 19.6 mph 26.5 mph N/A   Overcast
3:15 PM 32.0 °F 20.8 °F 24.8 °F 75% 30.01 in 10.0 mi NW 17.3 mph 21.9 mph N/A   Overcast
3:35 PM 32.0 °F 20.1 °F 24.8 °F 75% 30.02 in 10.0 mi NW 19.6 mph 25.3 mph N/A   Overcast
3:55 PM 32.0 °F 20.8 °F 24.8 °F 75% 30.03 in 10.0 mi NW 17.3 mph 24.2 mph N/A   Overcast
4:15 PM 32.0 °F 20.5 °F 26.6 °F 80% 30.03 in 10.0 mi WNW 18.4 mph 21.9 mph N/A   Overcast
4:35 PM 32.0 °F 21.6 °F 24.8 °F 75% 30.04 in 10.0 mi NW 15.0 mph 24.2 mph N/A   Overcast
4:55 PM 32.0 °F 22.1 °F 24.8 °F 75% 30.04 in 10.0 mi NW 13.8 mph 19.6 mph N/A   Overcast
5:15 PM 32.0 °F 23.0 °F 26.6 °F 80% 30.05 in 10.0 mi NW 11.5 mph - N/A   Overcast
5:35 PM 32.0 °F 24.2 °F 26.6 °F 80% 30.06 in 10.0 mi NW 9.2 mph - N/A   Overcast
5:55 PM 32.0 °F 24.2 °F 26.6 °F 80% 30.06 in 10.0 mi NW 9.2 mph - N/A   Overcast
6:15 PM 32.0 °F 23.6 °F 26.6 °F 80% 30.07 in 10.0 mi NW 10.4 mph - N/A   Overcast
6:35 PM 32.0 °F 21.6 °F 26.6 °F 80% 30.07 in 10.0 mi NW 15.0 mph 19.6 mph N/A   Overcast
6:55 PM 30.2 °F 18.5 °F 24.8 °F 80% 30.08 in 10.0 mi NW 17.3 mph 21.9 mph N/A   Overcast
7:15 PM 30.2 °F 19.3 °F 24.8 °F 80% 30.08 in 10.0 mi NW 15.0 mph - N/A   Overcast
7:35 PM 30.2 °F 18.9 °F 24.8 °F 80% 30.08 in 10.0 mi WNW 16.1 mph - N/A   Overcast
7:55 PM 30.2 °F 18.5 °F 24.8 °F 80% 30.08 in 10.0 mi NW 17.3 mph 21.9 mph N/A   Overcast
8:15 PM 28.4 °F 17.5 °F 24.8 °F 86% 30.09 in 10.0 mi NW 13.8 mph 18.4 mph N/A   Overcast
8:35 PM 28.4 °F 17.0 °F 24.8 °F 86% 30.09 in 10.0 mi NW 15.0 mph - N/A   Overcast
8:55 PM 28.4 °F 19.1 °F 24.8 °F 86% 30.10 in 10.0 mi NW 10.4 mph - N/A   Overcast
9:15 PM 28.4 °F 16.6 °F 24.8 °F 86% 30.10 in 10.0 mi WNW 16.1 mph 19.6 mph N/A   Overcast
9:35 PM 28.4 °F 16.6 °F 24.8 °F 86% 30.10 in 10.0 mi WNW 16.1 mph - N/A   Overcast
9:55 PM 28.4 °F 18.5 °F 24.8 °F 86% 30.11 in 10.0 mi WNW 11.5 mph 20.7 mph N/A   Overcast
10:15 PM 28.4 °F 18.0 °F 24.8 °F 86% 30.11 in 10.0 mi WNW 12.7 mph - N/A   Overcast
10:35 PM 28.4 °F 18.5 °F 24.8 °F 86% 30.11 in 10.0 mi WNW 11.5 mph - N/A   Overcast
10:55 PM 28.4 °F 18.0 °F 24.8 °F 86% 30.11 in 10.0 mi WNW 12.7 mph - N/A   Overcast
11:15 PM 28.4 °F 17.5 °F 24.8 °F 86% 30.12 in 10.0 mi NW 13.8 mph - N/A   Overcast
11:35 PM 28.4 °F 17.0 °F 23.0 °F 80% 30.12 in 10.0 mi NW 15.0 mph 20.7 mph N/A   Overcast
11:55 PM 28.4 °F 17.5 °F 23.0 °F 80% 30.12 in 10.0 mi NW 13.8 mph 21.9 mph N/A   Overcast